AirNav   Air Wisconsin pilot careers
 
 997 users online  

M36 Frank Federer Memorial Airport
Brinkley, Arkansas, USA

GOING TO BRINKLEY?


FAA INFORMATION EFFECTIVE 29 MARCH 2018

Location

FAA Identifier: M36
Lat/Long: 34-52-49.0000N / 091-10-35.2000W
34-52.816667N / 091-10.586667W
34.8802778 / -91.1764444
(estimated)
Elevation: 195.3 ft. / 59.5 m (surveyed)
Variation: 02E (1995)
Time zone: UTC -5 (UTC -6 during Standard Time)
Zip code: 72021

Airport Operations

Airport use: Open to the public
Activation date: 04/1941
Control tower: no
ARTCC: MEMPHIS CENTER
FSS: JONESBORO FLIGHT SERVICE STATION
NOTAMs facility: JBR (NOTAM-D service available)
Attendance: MAR-SEP MON-SAT 0800-1700, OCT-FEB MON-FRI 0800-1700
Pattern altitude: 1195.3 ft. MSL
Wind indicator: lighted
Segmented circle: yes
Lights: ACTVT MIRL RY 02/20 - CTAF.
Beacon: white-green (lighted land airport)
Operates sunset to sunrise.

Airport Communications

CTAF/UNICOM: 122.8
  • APCH/DEP SVC PROVIDED BY MEMPHIS ARTCC ON FREQS 135.3/335.8(BRINKLEY RCAG).

Nearby radio navigation aids

VOR radial/distance  VOR name  Freq  Var
UJMr305/30.8MARVELL VOR/DME109.6001E

Airport Services

Fuel available: 100LL
Parking: hangars and tiedowns
Airframe service: MAJOR
Powerplant service: MAJOR

Runway Information

Runway 2/20

Dimensions: 4002 x 75 ft. / 1220 x 23 m
Surface: asphalt, in fair condition
Weight bearing capacity: 
Single wheel: 12.0
Runway edge lights: medium intensity
RUNWAY 2  RUNWAY 20
Latitude: 34-52.519867N34-53.113748N
Longitude: 091-10.760575W091-10.411818W
Elevation: 195.1 ft.190.6 ft.
Gradient: 0.2%0.2%
Traffic pattern: rightleft
Runway heading: 024 magnetic, 026 true204 magnetic, 206 true
Displaced threshold: 248 ft.150 ft.
Markings: nonprecision, in fair conditionnonprecision, in fair condition
Visual slope indicator: 2-light PAPI on left (3.00 degrees glide path)
PAPI OTS INDEFLY.
2-light PAPI on left (3.00 degrees glide path)
PAPI OTS INDEFLY.
Touchdown point: yes, no lightsyes, no lights
Obstructions: 33 ft. tree, 450 ft. from runway, 150 ft. left of centerline, 7:1 slope to clear
ROAD & BRIDGE SIGNS AT 180 FT FM THLD CROSSING CNTRLN.
15 ft. tree, 300 ft. from runway, 125 ft. left of centerline, 6:1 slope to clear
APCH SLOPE 30:1 TO DSPLCD THLD.

Airport Ownership and Management from official FAA records

Ownership: Publicly-owned
Owner: CITY OF BRINKLEY
233 WEST CEDAR
BRINKLEY, AR 72021
Phone 870-734-1382
Manager: LYNN CARY
233 WEST CEDAR
BRINKLEY, AR 72021
Phone (870) 734-6064

Airport Operational Statistics

Aircraft based on the field: 8
Single engine airplanes: 8
    
Aircraft operations: avg 61/day *
90% local general aviation
9% transient general aviation
<1% military
* for 12-month period ending 31 August 2015

Additional Remarks

WATER-TANK NW.
NUMEROUS AGRICULTURAL ACFT OPNS FM FEB-NOV 500 FT AGL AND BELOW.
PAEW ADJ RY 02/20.
MIDFIELD STUB TXY CLSD UFN.

Instrument Procedures

NOTE: All procedures below are presented as PDF files. If you need a reader for these files, you should download the free Adobe Reader.

NOT FOR NAVIGATION. Please procure official charts for flight.
FAA instrument procedures published for use from 29 March 2018 at 0901Z to 26 April 2018 at 0900Z.

 
IAPs - Instrument Approach Procedures
RNAV (GPS) RWY 20   download (169KB)
NOTE: Special Take-Off Minimums/Departure Procedures apply   download (131KB)

Other nearby airports with instrument procedures:

6M7 - Marianna/Lee County Airport-Steve Edwards Field (19 nm E)
KDRP - Delta Regional Airport (22 nm NE)
M60 - Woodruff County Airport (24 nm N)
KSGT - Stuttgart Municipal Airport / Carl Humphrey Field (26 nm SW)
4M3 - Carlisle Municipal Airport (27 nm W)
 
Loc | Ops | Rwys | IFR | FBO | Links
Com | Nav | Svcs | Stats | Notes

AirNav Hotels Sweepstakes
 
Area around M36 (Frank Federer Memorial Airport)
 
Road maps at: MapQuest Bing Google
 
Aerial photo
WARNING: Photo may not be current or correct
Aerial photo of M36 (Frank Federer Memorial Airport)
Photo courtesy of the Arkansas Department of Aeronautics
Taken in the Spring of 2007

Do you have a better or more recent aerial photo of Frank Federer Memorial Airport that you would like to share? If so, please send us your photo.

 
Sectional chart

 
Airport distance calculator
Flying to Frank Federer Memorial Airport? Find the distance to fly.

From to M36

Sunrise and sunset
Times for 22-Apr-2018
 Local
(UTC-5)
 Zulu
(UTC)
Morning civil twilight05:5910:59
Sunrise06:2511:25
Sunset19:4100:41
Evening civil twilight20:0801:08

Current date and time
Zulu (UTC)  22-Apr-2018 19:11:30
Local (UTC-5)  22-Apr-2018 14:11:30
 
METAR
KSGT 
26nm SW 
221903Z AUTO 31014KT 10SM BKN012 OVC020 18/15 A2989 RMK AO2
KSRC 
35nm NW 
221856Z AUTO 31004KT 10SM FEW009 BKN012 OVC027 17/17 A2989 RMK AO2 TSE15RAE36 SLP129 P0005 T01720167
KUTA 
43nm E 
221855Z AUTO 14010KT 10SM 18/16 A2990 RMK AO2 TSNO
KM19 
45nm N 
221856Z AUTO 35009KT 10SM BKN007 OVC015 16/14 A2988 RMK AO2 RAE29 SLP123 P0000 T01560144
KCKM 
48nm SE 
221855Z AUTO 18008KT 10SM FEW015 SCT038 BKN050 19/17 A2990 RMK A01
KLRF 
48nm W 
221856Z 31007KT 10SM OVC018 18/14 A2990 RMK AO2A SLP127 T01760141
KAWM 
49nm E 
221853Z AUTO 16014G21KT 10SM FEW015 BKN048 OVC060 19/17 A2988 RMK AO2 SLP115 T01890172 $
TAF
KLRF 
48nm W 
221800Z 2218/2321 VRB06KT 9999 OVC010 QNH2986INS BECMG 2301/2302 30006KT 9999 OVC005 QNH2986INS BECMG 2313/2314 27006KT 9999 SCT010 BKN020 QNH2987INS BECMG 2314/2315 32012KT 9999 SCT020 QNH2986INS TX19/2221Z TN13/2312Z
NOTAMs
Click for the latest NOTAMs
NOTAMs are issued by the DoD/FAA and will open in a separate window not controlled by AirNav.

 

 
 

FBO, Fuel Providers, and Aircraft Ground Support

  
 Business Name 
 
 Contact 
 
 Services / Description 
 
Fuel Prices
 
Comments
  
Frank Federer Memorial Airport 870-734-5056
no information available

If you are affiliated with Frank Federer Memorial Airport and would like to show here your services, contact info, web link, logo, and more, click here
100LL
SS $4.98 
 Updated 01-May-2015
 
   write
SS=Self service
Update Fuel Prices
 

Would you like to see your business listed on this page?

 If your business provides an interesting product or service to pilots, flight crews, aircraft, or users of the Frank Federer Memorial Airport, you should consider listing it here.  To start the listing process, click on the button below
 
Add a business
 

Other Pages about Frank Federer Memorial Airport

Update a link
 
Copyright © AirNav, LLC. All rights reserved. Privacy Policy  Contact